Regional Weather Roundup
Issued by NWS

Home | Current Version | Previous Version | Graphics & Text | Print | Product List | Glossary Off
Versions: 1 2 3 4 5 6 7 8 9 10 11 12 13 14 15 16 17 18 19 20 21 22 23 24 25 26 27 28 29 30 31 32 33 34 35 36 37 38 39 40 41 42 43 44 45 46 47 48 49 50

000
ASUS43 KFSD 312110
RWRSD

WEATHER ROUNDUP FOR SOUTH DAKOTA
NATIONAL WEATHER SERVICE SIOUX FALLS SD
400 PM CDT TUE MAY 31 2016

NOTE: "FAIR" INDICATES FEW OR NO CLOUDS BELOW 12,000 FEET WITH NO
SIGNIFICANT WEATHER AND/OR OBSTRUCTIONS TO VISIBILITY.


SDZ001>005-009-010-012>017-312200-
NORTHWEST AND NORTH CENTRAL SOUTH DAKOTA

CITY           SKY/WX    TMP DP  RH WIND       PRES   REMARKS
BUFFALO          N/A     54  47  77 NW29G45   29.88R
FAITH            N/A     57  43  59 NW32G44   29.87R
MOBRIDGE       CLOUDY    61  50  67 W20G37    29.71F
$$

SDZ012>016-024>037-041>051-057-063-072>074-312200-
SOUTHWEST AND SOUTH CENTRAL SOUTH DAKOTA

CITY           SKY/WX    TMP DP  RH WIND       PRES   REMARKS
RAPID CTY ARPT PTSUNNY   61  39  44 NW25G33   29.99R
PIERRE         MOSUNNY   69  44  40 W35G45    29.86S
CUSTER         PTSUNNY   52  35  52 W20G32    30.06R
ELLSWORTH AFB  CLOUDY    61  41  46 NW25      29.98R
PHILIP         CLOUDY    66  44  45 NW36G49   29.91R
PINE RIDGE     MOSUNNY   70  33  25 NW23G33   29.99S
WINNER         FAIR      74  44  34 NW18G28   29.88S
$$

SDZ004>011-016>023-039-040-312200-
NORTHEAST SOUTH DAKOTA

CITY           SKY/WX    TMP DP  RH WIND       PRES   REMARKS
ABERDEEN       MOSUNNY   69  46  43 W29G36    29.76F
WATERTOWN      PTSUNNY   69  45  41 W18G25    29.82F
BROOKINGS      MOSUNNY   69  46  43 W17G24    29.85F
SISSETON         N/A     68  44  42 W22G31    29.77F
$$

SDZ017-020-022-023-036>040-048>070-312200-
SOUTHEAST SOUTH DAKOTA

CITY           SKY/WX    TMP DP  RH WIND       PRES   REMARKS
SIOUX FALLS    MOSUNNY   71  47  42 W15G21    29.89F
HURON          MOSUNNY   73  44  35 W21G29    29.83F
CHAMBERLAIN    MOSUNNY   75  47  38 W18G29    29.87S
MITCHELL       SUNNY     74  51  44 SW12G24   29.86F
YANKTON        SUNNY     72  46  40 SW12      29.90F
$$

ABBREVIATIONS USED IN REMARKS
   TC - TEMPERATURE IN CELSIUS
  WCI - WIND CHILL INDEX
   HX - HEAT INDEX
  VSB - VISIBILITY





USA.gov is the U.S. government's official web portal to all federal, state and local government web resources and services.